KC2EXG-9 Weather Reports


time (UTC)temp
C
wind
direction
speed
KPH
gust
KPH
rain 1hr
cm
rain 24hr
cm
rain mn
cm
humidity
%
barometer
mb
20260504050015 10 180 1.6 4.8 0.00 0.00 0.00 62 1009.4
20260504045035 10 203 1.6 1.6 0.00 0.00 0.00 61 1009.4
20260504044036 10 0.0 0.0 0.00 0.00 0.00 60 1009.4
20260504043015 11 180 1.6 3.2 0.00 0.00 0.00 59 1009.4
20260504042015 11 180 3.2 6.4 0.00 0.00 0.00 57 1009.4
20260504041015 11 203 3.2 4.8 0.00 0.00 0.00 56 1009.4
20260504040015 12 225 3.2 4.8 0.00 0.00 0.00 54 1009.4
20260504035036 12 225 6.4 9.7 0.00 0.00 0.00 54 1009.4
20260504034016 12 225 4.8 6.4 0.00 0.00 0.00 53 1009.4
20260504033017 12 203 3.2 8.0 0.00 0.00 0.00 54 1009.4
20260504032016 12 203 6.4 11.3 0.00 0.00 0.00 53 1009.5
20260504031017 12 225 3.2 6.4 0.00 0.00 0.00 55 1009.5
20260504030016 12 225 1.6 3.2 0.00 0.00 0.00 55 1009.5
20260504025016 12 225 4.8 8.0 0.00 0.00 0.00 54 1009.5
20260504024016 12 203 4.8 9.7 0.00 0.00 0.00 54 1009.6
20260504023016 12 203 4.8 6.4 0.00 0.00 0.00 55 1009.6
20260504022016 12 315 1.6 3.2 0.00 0.00 0.00 57 1009.7
20260504021016 12 225 1.6 3.2 0.00 0.00 0.00 56 1009.8
20260504020017 12 225 3.2 16.1 0.00 0.00 0.00 56 1009.8
20260504015016 12 180 4.8 12.9 0.00 0.00 0.00 58 1009.7
20260504014016 11 203 3.2 8.0 0.00 0.00 0.00 60 1009.7
20260504013056 11 203 3.2 4.8 0.00 0.00 0.00 62 1009.8
20260504012057 11 0.0 0.0 0.00 0.00 0.00 64 1009.9
20260504011036 11 225 1.6 3.2 0.00 0.00 0.00 64 1010.0
20260504010036 11 0.0 1.6 0.00 0.00 0.00 65 1010.1
20260504005036 11 0.0 1.6 0.00 0.00 0.00 67 1009.9
20260504004016 11 203 4.8 9.7 0.00 0.00 0.00 69 1010.0
20260504003017 11 270 1.6 3.2 0.00 0.00 0.00 69 1010.4
20260504002016 11 293 1.6 4.8 0.00 0.00 0.00 68 1010.3
20260504001016 11 203 4.8 12.9 0.00 0.00 0.00 66 1010.5
20260504000036 11 203 3.2 4.8 0.00 0.00 0.00 65 1010.3
20260503235036 11 315 3.2 6.4 0.00 0.00 0.00 64 1010.2
20260503234016 11 315 1.6 4.8 0.00 0.00 0.00 63 1010.1
20260503233016 12 315 4.8 6.4 0.00 0.00 0.00 59 1010.2
20260503232016 12 203 9.7 19.3 0.00 0.00 0.00 56 1010.4
20260503231016 12 203 4.8 12.9 0.00 0.00 0.00 53 1009.9
20260503230057 12 203 9.7 19.3 0.00 0.00 0.00 52 1009.6
20260503225036 12 225 9.7 20.9 0.00 0.00 0.00 51 1009.5
20260503224015 13 270 1.6 3.2 0.00 0.00 0.00 49 1009.4
20260503223016 13 203 8.0 25.7 0.00 0.00 0.00 47 1009.5
20260503222016 13 338 6.4 14.5 0.00 0.00 0.00 46 1009.4
20260503221016 13 23 1.6 6.4 0.00 0.00 0.00 47 1009.4
20260503220015 13 203 9.7 12.9 0.00 0.00 0.00 47 1009.6
20260503215016 13 270 4.8 9.7 0.00 0.00 0.00 47 1009.8
20260503214016 13 225 3.2 4.8 0.00 0.00 0.00 47 1009.9
20260503213036 13 248 6.4 12.9 0.00 0.00 0.00 45 1009.7
20260503212016 14 203 4.8 14.5 0.00 0.00 0.00 46 1009.7
20260503211015 14 225 6.4 14.5 0.00 0.00 0.00 45 1009.6
20260503210016 14 270 4.8 8.0 0.00 0.00 0.00 44 1009.6
20260503205036 15 225 6.4 11.3 0.00 0.00 0.00 43 1009.6
20260503204015 15 203 8.0 17.7 0.00 0.00 0.00 42 1009.6
20260503203015 14 315 8.0 17.7 0.00 0.00 0.00 42 1009.8
20260503202015 15 315 3.2 4.8 0.00 0.00 0.00 42 1010.0
20260503201016 14 315 6.4 11.3 0.00 0.00 0.00 44 1010.0
20260503200035 15 225 4.8 12.9 0.00 0.00 0.00 40 1010.2
20260503195035 13 338 3.2 6.4 0.00 0.00 0.00 42 1010.3
20260503194015 13 315 8.0 17.7 0.00 0.00 0.00 40 1010.6
20260503193015 13 225 6.4 14.5 0.00 0.00 0.00 40 1010.9
20260503192015 13 270 6.4 11.3 0.00 0.00 0.00 41 1010.9
20260503191035 13 225 8.0 12.9 0.00 0.00 0.00 40 1011.2
20260503190015 14 225 4.8 8.0 0.00 0.00 0.00 42 1011.2
20260503185036 13 315 6.4 12.9 0.00 0.00 0.00 46 1011.6
20260503184015 14 0 4.8 6.4 0.00 0.00 0.00 43 1011.5
20260503183035 14 203 4.8 6.4 0.00 0.00 0.00 47 1011.6
20260503182035 14 203 12.9 20.9 0.00 0.00 0.00 41 1011.9
20260503181015 12 315 3.2 6.4 0.00 0.00 0.00 47 1012.0
20260503180015 12 0 4.8 9.7 0.00 0.00 0.00 47 1012.0
20260503175015 12 203 8.0 12.9 0.00 0.00 0.00 48 1011.9
20260503174015 13 270 4.8 6.4 0.00 0.00 0.00 52 1012.1
20260503173015 13 315 4.8 12.9 0.00 0.00 0.00 48 1012.2
20260503172015 12 203 6.4 14.5 0.00 0.00 0.00 47 1012.3
20260503171035 14 0 4.8 11.3 0.00 0.00 0.00 52 1012.5
20260503131017 7 293 3.2 4.8 0.00 0.00 0.00 64 1014.7
20260503081016 1 0.0 0.0 0.00 0.00 0.00 86 1014.1
20260503072016 2 0.0 0.0 0.00 0.00 0.00 84 1014.0
20260503071015 2 0.0 0.0 0.00 0.00 0.00 83 1014.1
20260503055036 4 0.0 0.0 0.00 0.00 0.00 78 1014.5
20260503054015 4 0.0 1.6 0.00 0.00 0.00 77 1014.5